Retour au catalogue

STARLINK-35707

ActifCommunicationsVLEO
NORAD 66533·PAYLOAD·🇺🇸 United States

Lancé Nov 19, 2025 depuis Cape Canaveral Space Force Station

Loading…

Prochains Passages (prochaines 24 heures)

TLE

FraisSource: CelesTrak SupGP

Époque: Sep 15, 2026, 03:19 UTC

1 66533C 25265T   26258.13868056 -.00001189  00000+0 -43054-4 0  2581
2 66533  42.9999 288.0378 0001327 267.5767 216.6865 15.27588281    18

Suivez STARLINK-35707 en temps réel avec AllMySat

Download on the App Store